EW9692 Weather Reports


time (UTC)temp
F
wind
direction
speed
knots
gust
knots
rain 1hr
in
rain 24hr
in
rain mn
in
humidity
%
barometer
mb
20260507193009 88 19 2.6 7.0 0.00 0.00 0.00 10 1010.0
20260507191505 87 29 0.0 7.0 0.00 0.00 0.00 11 1010.2
20260507190001 86 18 5.2 8.7 0.00 0.00 0.00 12 1010.5
20260507184605 86 303 4.3 10.4 0.00 0.00 0.00 13 1010.6
20260507183056 86 38 3.5 7.0 0.00 0.00 0.00 13 1010.9
20260507181600 84 38 0.0 7.0 0.00 0.00 0.00 14 1011.1
20260507180048 85 326 2.6 8.7 0.00 0.00 0.00 16 1011.2
20260507174550 82 360 1.7 3.5 0.00 0.00 0.00 17 1011.3
20260507173040 83 279 0.9 5.2 0.00 0.00 0.00 18 1011.5
20260507171538 82 260 0.9 6.1 0.00 0.00 0.00 20 1011.5
20260507170041 81 5 0.9 3.5 0.00 0.00 0.00 21 1011.7
20260507164527 80 290 0.9 4.3 0.00 0.00 0.00 23 1011.9
20260507163022 79 322 1.7 4.3 0.00 0.00 0.00 24 1012.0
20260507161518 78 340 0.9 3.5 0.00 0.00 0.00 25 1012.0
20260507160015 78 10 0.9 3.5 0.00 0.00 0.00 24 1012.2
20260507154509 77 360 0.9 3.5 0.00 0.00 0.00 23 1012.1
20260507153008 75 76 0.9 3.5 0.00 0.00 0.00 26 1012.2
20260507151600 74 42 0.9 3.5 0.00 0.00 0.00 28 1012.3
20260507150056 72 59 0.9 2.6 0.00 0.00 0.00 29 1012.2
20260507144552 71 58 0.0 2.6 0.00 0.00 0.00 31 1012.3
20260507143048 69 49 0.0 1.7 0.00 0.00 0.00 32 1012.3
20260507141543 67 61 0.0 1.7 0.00 0.00 0.00 33 1012.5
20260507140043 66 344 0.0 1.7 0.00 0.00 0.00 35 1012.3
20260507134536 65 269 1.7 3.5 0.00 0.00 0.00 34 1012.0
20260507133030 64 292 0.9 2.6 0.00 0.00 0.00 35 1011.9
20260507131534 64 273 0.9 2.6 0.00 0.00 0.00 35 1011.7
20260507130020 64 347 0.0 0.0 0.00 0.00 0.00 36 1011.6
20260507124516 64 49 0.0 0.9 0.00 0.00 0.00 34 1011.8
20260507123014 64 139 0.0 1.7 0.00 0.00 0.00 34 1011.8
20260507121513 64 241 0.9 2.6 0.00 0.00 0.00 33 1011.4
20260507120023 65 265 0.0 2.6 0.00 0.00 0.00 33 1011.5
20260507114509 66 265 0.9 2.6 0.00 0.00 0.00 32 1011.6
20260507113007 67 311 0.9 2.6 0.00 0.00 0.00 31 1011.8
20260507111509 67 342 0.0 0.9 0.00 0.00 0.00 29 1011.9
20260507110006 67 342 0.0 0.9 0.00 0.00 0.00 29 1011.8
20260507104510 67 342 0.0 0.9 0.00 0.00 0.00 29 1011.8
20260507103006 67 343 0.0 0.9 0.00 0.00 0.00 30 1011.9
20260507101504 67 343 0.0 3.5 0.00 0.00 0.00 30 1012.1
20260507100002 67 154 0.0 0.0 0.00 0.00 0.00 31 1012.1
20260507094500 66 154 0.0 0.0 0.00 0.00 0.00 31 1012.3
20260507093100 66 154 0.0 0.0 0.00 0.00 0.00 32 1012.4
20260507091600 66 154 0.0 0.0 0.00 0.00 0.00 31 1012.4
20260507090058 67 154 0.0 1.7 0.00 0.00 0.00 32 1012.6
20260507084557 67 154 0.0 5.2 0.00 0.00 0.00 32 1012.7
20260507083056 66 157 1.7 3.5 0.00 0.00 0.00 32 1012.7
20260507081600 66 228 1.7 2.6 0.00 0.00 0.00 32 1012.8
20260507080051 67 233 0.0 1.7 0.00 0.00 0.00 33 1012.8
20260507074600 68 240 0.0 0.0 0.00 0.00 0.00 30 1012.8
20260507073045 69 240 0.0 1.7 0.00 0.00 0.00 29 1012.7
20260507071542 70 241 0.0 0.9 0.00 0.00 0.00 29 1012.7
20260507070042 70 241 0.0 0.9 0.00 0.00 0.00 26 1012.8
20260507064540 70 241 0.0 0.9 0.00 0.00 0.00 27 1012.8
20260507063040 69 241 0.0 1.7 0.00 0.00 0.00 27 1012.7
20260507061542 69 241 0.0 3.5 0.00 0.00 0.00 27 1012.7
20260507060039 70 232 0.0 0.9 0.00 0.00 0.00 29 1012.8
20260507054548 70 232 0.0 0.0 0.00 0.00 0.00 27 1012.6
20260507053038 70 231 0.0 0.0 0.00 0.00 0.00 29 1012.7
20260507051537 70 232 0.0 0.0 0.00 0.00 0.00 26 1012.7
20260507050036 71 232 0.0 0.0 0.00 0.00 0.00 26 1012.6
20260507044539 71 232 0.0 0.0 0.00 0.00 0.00 26 1012.6
20260507043035 72 232 0.0 0.9 0.00 0.00 0.00 26 1012.5
20260507041534 73 232 0.0 0.0 0.00 0.00 0.00 25 1012.4
20260507040036 73 232 0.0 0.0 0.00 0.00 0.00 24 1012.3
20260507034533 74 232 0.0 0.0 0.00 0.00 0.00 24 1012.1
20260507033034 75 232 0.0 0.0 0.00 0.00 0.00 23 1011.9
20260507031533 76 232 0.0 0.9 0.00 0.00 0.00 22 1011.7
20260507030035 76 231 0.0 2.6 0.00 0.00 0.00 21 1011.5
20260507024533 77 231 0.0 0.9 0.00 0.00 0.00 20 1011.3
20260507023032 78 231 0.0 0.0 0.00 0.00 0.00 20 1011.2
20260507021530 79 231 0.0 0.9 0.00 0.00 0.00 19 1011.1
20260507020029 79 221 0.9 5.2 0.00 0.00 0.00 18 1010.9
20260507014542 81 269 0.9 7.0 0.00 0.00 0.00 18 1010.9
20260507013028 82 222 0.0 4.3 0.00 0.00 0.00 17 1011.0
20260507011529 82 337 0.0 1.7 0.00 0.00 0.00 18 1011.1
20260507010032 82 275 0.9 5.2 0.00 0.00 0.00 18 1011.0
20260507004525 82 310 0.9 6.1 0.00 0.00 0.00 18 1011.0
20260507003025 81 22 1.7 5.2 0.00 0.00 0.00 17 1010.9
20260507001527 82 346 0.0 7.0 0.00 0.00 0.00 18 1010.8
20260507000032 82 5 4.3 8.7 0.00 0.00 0.00 18 1010.9
20260506234522 82 350 2.6 5.2 0.00 0.00 0.00 17 1010.9
20260506233020 82 315 1.7 8.7 0.00 0.00 0.00 17 1011.0
20260506231518 82 355 3.5 7.0 0.00 0.00 0.00 17 1011.3
20260506230017 82 311 1.7 7.0 0.00 0.00 0.00 17 1011.6
20260506224514 81 239 1.7 7.8 0.00 0.00 0.00 18 1011.8
20260506223013 81 279 2.6 7.8 0.00 0.00 0.00 19 1011.9
20260506221511 81 304 2.6 8.7 0.00 0.00 0.00 19 1012.0
20260506220019 81 273 1.7 6.1 0.00 0.00 0.00 19 1012.1
20260506214508 80 304 0.9 8.7 0.00 0.00 0.00 20 1012.3
20260506213007 79 304 2.6 7.8 0.00 0.00 0.00 21 1012.7
20260506211508 80 341 0.9 7.0 0.00 0.00 0.00 19 1012.9
20260506210009 79 266 0.9 4.3 0.00 0.00 0.00 20 1013.0
20260506204504 79 284 4.3 12.2 0.00 0.00 0.00 22 1013.3
20260506203004 79 240 0.0 6.1 0.00 0.00 0.00 20 1013.3
20260506201502 78 267 2.6 8.7 0.00 0.00 0.00 22 1013.6
20260506200058 78 247 0.9 6.1 0.00 0.00 0.00 21 1013.6
20260506194623 77 61 0.0 4.3 0.00 0.00 0.00 21 1013.7